[TLELIST] Archives

 

[list_settings.list_name] Current TLEs

April 30th 2009 PST

HST 1 20580U 90037B 09118.96579441 +.00000283 +00000-0 +89818-5 0 03871 2 20580 028.4687 063.4903 0003893 141.1093 218.9776 15.00478469842456 ISS (ZARYA) 1 25544U 98067A 09120.46062699 .00009682 00000-0 70623-4 0 7685 2 25544 051.6391 191.6335 0009051 307.0149 053.0546 15.72506461598444 CXO 1 25867U 99040B 09118.91666667 +.00000436 +00000-0 +10000-3 0 03188 2 25867 065.2454 070.8642 7426088 276.1961 001.3771 00.37797247004829 ____________________________________________________________________ These 2-Line ...Continue Reading

[list_settings.list_name] Current TLEs

April 29th 2009 PST

HST 1 20580U 90037B 09119.23185231 .00000306 00000-0 10770-4 0 3766 2 20580 028.4685 061.7514 0003875 142.6819 217.4039 15.00478568842495 ISS (ZARYA) 1 25544U 98067A 09118.82643640 .00009928 00000-0 77165-4 0 7594 2 25544 051.6400 200.0022 0008705 300.2632 162.4789 15.72479717598188 CXO 1 25867U 99040B 09118.91666667 +.00000436 +00000-0 +10000-3 0 03188 2 25867 065.2454 070.8642 7426088 276.1961 001.3771 00.37797247004829 ____________________________________________________________________ These 2-Line ...Continue Reading

[list_settings.list_name] Current TLEs

April 28th 2009 PST

HST 1 20580U 90037B 09117.90156118 .00000329 00000-0 12543-4 0 3754 2 20580 028.4686 070.4316 0003845 130.1750 229.9180 15.00478468842298 ISS (ZARYA) 1 25544U 98067A 09116.96141204 +.00010349 +00000-0 +80374-4 0 07478 2 25544 051.6407 209.5575 0008588 291.7462 046.2557 15.72441757597887 CXO 1 25867U 99040B 09113.58333333 +.00000615 +00000-0 +10000-3 0 03175 2 25867 065.2142 071.0805 7421195 276.2496 355.2526 00.37809333004802 ____________________________________________________________________ These 2-Line ...Continue Reading

[list_settings.list_name] Current TLEs

April 27th 2009 PST

HST 1 20580U 90037B 09116.23869654 .00000349 00000-0 14127-4 0 3746 2 20580 028.4684 081.2771 0003806 112.1153 247.9841 15.00477996842047 ISS (ZARYA) 1 25544U 98067A 09117.10570332 .00010367 00000-0 80492-4 0 7485 2 25544 051.6407 208.8181 0008590 292.3815 142.9745 15.72445017597914 CXO 1 25867U 99040B 09113.58333333 +.00000615 +00000-0 +10000-3 0 03175 2 25867 065.2142 071.0805 7421195 276.2496 355.2526 00.37809333004802 ____________________________________________________________________ These 2-Line ...Continue Reading

[list_settings.list_name] Current TLEs

April 26th 2009 PST

HST 1 20580U 90037B 09114.97491870 +.00000309 +00000-0 +11022-4 0 03855 2 20580 028.4686 089.5223 0003719 099.9630 260.1378 15.00477350841851 ISS (ZARYA) 1 25544U 98067A 09115.83823115 .00010105 00000-0 78666-4 0 7405 2 25544 051.6408 215.3118 0008578 287.4337 168.2439 15.72416440597715 CXO 1 25867U 99040B 09113.58333333 +.00000615 +00000-0 +10000-3 0 03175 2 25867 065.2142 071.0805 7421195 276.2496 355.2526 00.37809333004802 ____________________________________________________________________ These 2-Line ...Continue Reading

[list_settings.list_name] Current TLEs

April 25th 2009 PST

HST 1 20580U 90037B 09115.17446270 .00000316 00000-0 11574-4 0 3739 2 20580 028.4685 088.2196 0003764 101.5994 258.5020 15.00477451841888 ISS (ZARYA) 1 25544U 98067A 09114.50526821 .00010952 00000-0 84965-4 0 7322 2 25544 051.6400 222.1391 0008501 279.0655 186.1052 15.72390425597503 CXO 1 25867U 99040B 09113.58333333 +.00000615 +00000-0 +10000-3 0 03175 2 25867 065.2142 071.0805 7421195 276.2496 355.2526 00.37809333004802 ____________________________________________________________________ These 2-Line ...Continue Reading

[list_settings.list_name] Current TLEs

April 24th 2009 PST

HST 1 20580U 90037B 09112.38084535 +.00000299 +00000-0 +10246-4 0 03769 2 20580 028.4689 106.4394 0003724 072.6606 287.4389 15.00476624841463 ISS (ZARYA) 1 25544U 98067A 09114.10646991 .00012672 00000-0 97565-4 0 7308 2 25544 051.6407 224.1827 0008763 279.2929 086.9444 15.72388562597446 CXO 1 25867U 99040B 09113.58333333 +.00000615 +00000-0 +10000-3 0 03175 2 25867 065.2142 071.0805 7421195 276.2496 355.2526 00.37809333004802 ____________________________________________________________________ These 2-Line ...Continue Reading

[list_settings.list_name] Current TLEs

April 23rd 2009 PST

HST 1 20580U 90037B 09111.38312400 +.00000281 +00000-0 +88578-5 0 03791 2 20580 028.4690 112.9462 0003681 061.9870 298.1092 15.00476285841316 ISS (ZARYA) 1 25544U 98067A 09112.79661553 .00014089 00000-0 10808-3 0 7232 2 25544 051.6404 230.8937 0008684 272.5117 234.2690 15.72359056597230 CXO 1 25867U 99040B 09110.95833333 +.00000574 +00000-0 +10000-3 0 03161 2 25867 065.1979 071.1783 7417500 276.2384 357.9636 00.37808224004793 ____________________________________________________________________ These 2-Line ...Continue Reading

[list_settings.list_name] Current TLEs

April 22nd 2009 PST

HST 1 20580U 90037B 09112.18130114 .00000273 00000-0 82644-5 0 3711 2 20580 028.4689 107.7412 0003668 070.5819 289.5165 15.00476415841438 ISS (ZARYA) 1 25544U 98067A 09111.84188110 .00013194 00000-0 10165-3 0 7175 2 25544 051.6405 235.7844 0008586 267.5294 231.3891 15.72328152597080 CXO 1 25867U 99040B 09110.95833333 +.00000574 +00000-0 +10000-3 0 03161 2 25867 065.1979 071.1783 7417500 276.2384 357.9636 00.37808224004793 ____________________________________________________________________ These 2-Line ...Continue Reading

[list_settings.list_name] Current TLEs

April 21st 2009 PST

HST 1 20580U 90037B 09109.45419505 +.00000325 +00000-0 +12244-4 0 03773 2 20580 028.4689 125.5281 0003614 040.9780 319.1083 15.00475959841025 ISS (ZARYA) 1 25544U 98067A 09111.11903935 .00011810 00000-0 91592-4 0 7127 2 25544 051.6419 239.4855 0008472 264.4749 100.1364 15.72302205596979 CXO 1 25867U 99040B 09110.95833333 +.00000574 +00000-0 +10000-3 0 03161 2 25867 065.1979 071.1783 7417500 276.2384 357.9636 00.37808224004793 ____________________________________________________________________ These 2-Line ...Continue Reading
  • This mailing list is a public mailing list - anyone may join or leave, at any time.
  • This mailing list is announce-only.

International Space Station (ISS) / Hubble Space Telescope (HST) / Chandra X-Ray Observatory Orbital Data via EMAIL

Privacy Policy:

Private list